GW5750 Weather Reports


time (UTC)temp
C
wind
direction
speed
KPH
gust
KPH
rain 1hr
cm
rain 24hr
cm
rain mn
cm
humidity
%
barometer
mb
20260906011234 26 6 0.0 0.0 0.00 0.15 0.15 88 1011.9
20260906010730 27 5 0.0 1.6 0.00 0.15 0.15 88 1012.0
20260906010226 27 5 0.0 1.6 0.00 0.15 0.15 88 1012.0
20260906005721 27 8 1.6 1.6 0.00 0.15 0.15 87 1012.1
20260906005220 27 90 0.0 1.6 0.00 0.15 0.15 87 1011.9
20260906004719 27 52 0.0 0.0 0.00 0.15 0.15 88 1011.8
20260906004214 27 104 0.0 1.6 0.00 0.15 0.15 87 1011.9
20260906003709 27 224 0.0 0.0 0.00 0.15 0.15 87 1011.7
20260906003205 27 128 1.6 1.6 0.00 0.15 0.15 87 1011.8
20260906002705 27 180 1.6 3.2 0.00 0.15 0.15 86 1011.9
20260906002200 27 302 1.6 1.6 0.00 0.15 0.15 86 1011.9
20260906001655 27 336 1.6 1.6 0.00 0.15 0.15 86 1011.9
20260906001155 28 16 0.0 0.0 0.00 0.15 0.15 86 1011.8
20260906000651 28 304 1.6 1.6 0.00 0.15 0.15 85 1012.0
20260906000146 28 212 3.2 4.8 0.00 0.15 0.15 84 1011.8
20260905235645 28 260 1.6 3.2 0.00 0.15 0.15 83 1012.0
20260905235140 28 229 0.0 0.0 0.00 0.15 0.15 83 1011.8
20260905234636 28 177 3.2 3.2 0.00 0.15 0.15 82 1011.8
20260905234131 28 149 4.8 6.4 0.00 0.15 0.15 83 1011.7
20260905233626 28 306 1.6 1.6 0.00 0.15 0.15 83 1011.7
20260905233125 28 302 3.2 3.2 0.00 0.15 0.15 82 1011.8
20260905232621 28 181 3.2 4.8 0.00 0.15 0.15 82 1011.9
20260905232117 29 290 3.2 3.2 0.00 0.15 0.15 82 1011.6
20260905231617 29 229 4.8 4.8 0.00 0.15 0.15 82 1012.0
20260905231113 29 312 1.6 1.6 0.00 0.15 0.15 81 1011.7
20260905230609 29 290 1.6 1.6 0.00 0.15 0.15 80 1011.7
20260905230107 30 203 1.6 1.6 0.00 0.15 0.15 80 1011.7
20260905225606 30 215 3.2 4.8 0.00 0.15 0.15 78 1011.8
20260905225102 30 211 3.2 3.2 0.00 0.15 0.15 78 1011.6
20260905224601 30 234 0.0 1.6 0.00 0.15 0.15 77 1011.8
20260905224101 30 332 1.6 1.6 0.00 0.15 0.15 75 1011.8
20260905223558 30 211 0.0 1.6 0.00 0.15 0.15 76 1011.7
20260905223054 30 275 4.8 6.4 0.00 0.15 0.15 76 1011.9
20260905222554 30 238 3.2 4.8 0.00 0.15 0.15 75 1012.0
20260905222049 31 260 4.8 4.8 0.00 0.15 0.15 74 1011.9
20260905221546 31 237 3.2 3.2 0.00 0.15 0.15 73 1012.0
20260905221042 31 249 3.2 3.2 0.00 0.15 0.15 74 1012.0
20260905220537 31 210 3.2 3.2 0.00 0.15 0.15 73 1012.0
20260905220033 31 258 1.6 3.2 0.00 0.15 0.15 74 1012.1
20260905215532 31 275 3.2 3.2 0.00 0.15 0.15 72 1012.2
20260905215029 31 289 1.6 3.2 0.00 0.15 0.15 72 1012.0
20260905214524 31 206 1.6 3.2 0.00 0.15 0.15 72 1012.2
20260905214019 31 207 3.2 3.2 0.00 0.15 0.15 72 1012.3
20260905213514 31 16 1.6 1.6 0.00 0.15 0.15 70 1012.4
20260905213010 31 29 1.6 1.6 0.00 0.15 0.15 70 1012.4
20260905212505 31 338 0.0 0.0 0.00 0.15 0.15 69 1012.6
20260905212004 31 278 3.2 3.2 0.00 0.15 0.15 71 1012.3
20260905211459 33 8 0.0 0.0 0.00 0.15 0.15 66 1012.3
20260905210955 32 335 0.0 1.6 0.00 0.15 0.15 66 1012.5
20260905210451 31 335 0.0 0.0 0.00 0.15 0.15 73 1012.6
20260905205950 31 23 0.0 0.0 0.00 0.15 0.15 69 1012.4
20260905205445 30 296 0.0 1.6 0.00 0.15 0.15 75 1012.4
20260905204943 29 317 1.6 3.2 0.00 0.15 0.15 77 1012.4
20260905204439 28 324 1.6 3.2 0.00 0.15 0.15 84 1012.4
20260905203938 27 14 1.6 3.2 0.00 0.15 0.15 87 1012.3
20260905203434 27 175 3.2 3.2 0.00 0.15 0.15 87 1012.4
20260905202930 26 325 1.6 1.6 0.00 0.15 0.15 89 1012.5
20260905202425 26 262 3.2 3.2 0.00 0.15 0.15 89 1012.4
20260905201920 26 260 4.8 4.8 0.00 0.15 0.15 87 1012.6
20260905201416 26 32 0.0 0.0 0.00 0.15 0.15 89 1013.0
20260905200915 26 19 1.6 3.2 0.00 0.15 0.15 89 1013.0
20260905200411 27 221 1.6 3.2 0.00 0.15 0.15 89 1013.2
20260905195909 27 31 3.2 3.2 0.00 0.15 0.15 88 1013.1
20260905195404 27 36 1.6 1.6 0.00 0.15 0.15 87 1013.1
20260905194900 27 29 3.2 3.2 0.00 0.15 0.15 87 1013.1
20260905194359 27 40 1.6 3.2 0.00 0.15 0.15 87 1013.0
20260905193859 27 353 3.2 4.8 0.00 0.15 0.15 86 1013.1
20260905193354 27 24 4.8 6.4 0.00 0.15 0.15 85 1013.2
20260905192850 28 54 3.2 4.8 0.00 0.15 0.15 83 1013.3
20260905192345 29 80 0.0 1.6 0.00 0.15 0.15 83 1013.2
20260905191845 30 102 0.0 1.6 0.00 0.15 0.15 81 1013.2
20260905191344 30 45 1.6 3.2 0.00 0.15 0.15 78 1013.1
20260905190843 30 122 1.6 1.6 0.00 0.15 0.15 79 1013.1
20260905190342 30 41 1.6 1.6 0.00 0.15 0.15 81 1013.2
20260905185841 30 41 0.0 0.0 0.00 0.15 0.15 83 1013.4
20260905185337 29 49 1.6 3.2 0.00 0.15 0.15 83 1013.4
20260905184835 28 84 1.6 3.2 0.00 0.15 0.15 84 1013.4
20260905184335 28 16 3.2 4.8 0.00 0.15 0.15 84 1013.5
20260905183833 28 35 3.2 4.8 0.00 0.15 0.15 84 1013.7
20260905183329 28 24 3.2 4.8 0.00 0.15 0.15 89 1013.7
20260905182824 28 18 3.2 4.8 0.00 0.15 0.15 85 1013.7
20260905182323 28 16 4.8 6.4 0.61 0.15 0.15 86 1013.8
20260905181819 28 24 3.2 3.2 0.89 0.15 0.15 87 1013.8
20260905181318 30 35 3.2 3.2 0.61 0.10 0.10 82 1013.8
20260905180817 30 67 3.2 4.8 0.00 0.00 0.00 77 1013.9
20260905180313 31 9 1.6 1.6 0.00 0.00 0.00 74 1014.1
20260905175808 31 303 1.6 1.6 0.00 0.00 0.00 72 1014.0
20260905175306 31 302 1.6 1.6 0.00 0.00 0.00 72 1013.9
20260905174757 31 27 1.6 1.6 0.00 0.00 0.00 70 1014.0
20260905174253 31 34 3.2 4.8 0.00 0.00 0.00 70 1014.1
20260905173749 31 31 3.2 3.2 0.00 0.00 0.00 70 1014.0
20260905173245 31 35 1.6 1.6 0.00 0.00 0.00 71 1014.0
20260905172744 31 297 3.2 3.2 0.00 0.00 0.00 71 1014.0
20260905172243 31 24 0.0 1.6 0.00 0.00 0.00 70 1014.1
20260905171740 31 22 4.8 4.8 0.00 0.00 0.00 71 1014.1
20260905171236 32 16 3.2 3.2 0.00 0.00 0.00 70 1014.3
20260905170732 32 18 1.6 3.2 0.00 0.00 0.00 70 1014.3
20260905170228 32 46 3.2 4.8 0.00 0.00 0.00 73 1014.3
20260905165727 32 239 3.2 4.8 0.00 0.00 0.00 69 1014.2
20260905165222 33 22 4.8 6.4 0.00 0.00 0.00 69 1014.4
20260905164722 33 12 3.2 3.2 0.00 0.00 0.00 70 1014.3
20260905164216 32 24 3.2 4.8 0.00 0.00 0.00 71 1014.4
20260905163712 32 227 4.8 4.8 0.00 0.00 0.00 69 1014.6
20260905163209 32 87 0.0 0.0 0.00 0.00 0.00 76 1014.5
20260905162704 31 302 4.8 6.4 0.00 0.00 0.00 73 1014.6
20260905162204 32 227 1.6 3.2 0.00 0.00 0.00 71 1014.4
20260905161659 32 338 4.8 4.8 0.00 0.00 0.00 72 1014.4
20260905161157 32 155 3.2 3.2 0.00 0.00 0.00 72 1014.5
20260905160656 32 299 3.2 4.8 0.00 0.00 0.00 69 1014.6
20260905160155 32 260 3.2 4.8 0.00 0.00 0.00 67 1014.5
20260905155650 32 302 3.2 3.2 0.00 0.00 0.00 70 1014.8
20260905155149 32 11 3.2 3.2 0.00 0.00 0.00 69 1014.7
20260905154643 31 45 0.0 0.0 0.00 0.00 0.00 74 1014.5
20260905154139 32 147 4.8 6.4 0.00 0.00 0.00 72 1014.6
20260905153634 32 263 4.8 6.4 0.00 0.00 0.00 71 1014.4
20260905153130 31 353 4.8 6.4 0.00 0.00 0.00 70 1014.5
20260905152625 31 228 6.4 6.4 0.00 0.00 0.00 72 1014.5
20260905152119 32 269 3.2 3.2 0.00 0.00 0.00 72 1014.5
20260905151614 31 57 0.0 0.0 0.00 0.00 0.00 76 1014.6
20260905151110 31 225 1.6 4.8 0.00 0.00 0.00 75 1014.5
20260905150605 31 126 3.2 3.2 0.00 0.00 0.00 73 1014.5
20260905150103 31 89 1.6 1.6 0.00 0.00 0.00 74 1014.6
20260905145602 30 62 0.0 1.6 0.00 0.00 0.00 78 1014.6
20260905145101 31 232 4.8 4.8 0.00 0.00 0.00 74 1014.5
20260905144557 31 83 3.2 4.8 0.00 0.00 0.00 75 1014.6
20260905144055 30 66 0.0 0.0 0.00 0.00 0.00 79 1014.7
20260905143555 30 335 1.6 3.2 0.00 0.00 0.00 81 1014.5
20260905143050 30 313 3.2 3.2 0.00 0.00 0.00 82 1014.5
20260905142550 29 19 0.0 1.6 0.00 0.00 0.00 84 1014.6
20260905142049 29 359 1.6 1.6 0.00 0.00 0.00 83 1014.4
20260905141544 30 155 3.2 3.2 0.00 0.00 0.00 80 1014.5
20260905141041 30 75 0.0 0.0 0.00 0.00 0.00 82 1014.5
20260905140541 30 358 1.6 1.6 0.00 0.00 0.00 81 1014.2
20260905140040 30 49 1.6 1.6 0.00 0.00 0.00 84 1014.3
20260905135536 30 45 0.0 1.6 0.00 0.00 0.00 83 1014.4
20260905135037 30 49 0.0 0.0 0.00 0.00 0.00 84 1014.1
20260905134537 29 46 1.6 1.6 0.00 0.00 0.00 87 1014.2
20260905134035 28 51 1.6 1.6 0.00 0.00 0.00 88 1014.4
20260905133531 28 47 1.6 1.6 0.00 0.00 0.00 88 1014.3
20260905133030 28 57 3.2 3.2 0.00 0.00 0.00 90 1014.1
20260905132530 28 38 3.2 3.2 0.00 0.00 0.00 90 1014.3
20260905132025 28 46 1.6 1.6 0.00 0.00 0.00 90 1014.3
20260905131521 28 38 3.2 3.2 0.00 0.00 0.00 90 1014.5
20260905131016 27 40 0.0 0.0 0.00 0.00 0.00 91 1014.3
20260905130515 27 51 0.0 1.6 0.00 0.00 0.00 90 1014.2
20260905130010 27 49 0.0 0.0 0.00 0.00 0.00 91 1014.3
20260905125504 27 51 0.0 0.0 0.00 0.00 0.00 92 1014.3
20260905125000 27 39 0.0 1.6 0.00 0.00 0.00 93 1014.2
20260905124456 27 55 1.6 1.6 0.00 0.00 0.00 94 1014.2
20260905123952 26 60 1.6 1.6 0.00 0.00 0.00 96 1014.1
20260905123448 26 50 0.0 0.0 0.00 0.00 0.00 97 1014.2
20260905122949 25 47 1.6 3.2 0.00 0.00 0.00 97 1014.2
20260905122448 25 46 1.6 1.6 0.00 0.00 0.00 98 1014.1
20260905121944 25 48 0.0 0.0 0.00 0.00 0.00 99 1014.0
20260905121439 25 48 1.6 1.6 0.00 0.00 0.00 99 1013.9
20260905120938 25 48 0.0 1.6 0.00 0.00 0.00 99 1013.9
20260905120433 24 48 0.0 0.0 0.00 0.00 0.00 99 1013.8
20260905115928 24 49 0.0 0.0 0.00 0.00 0.00 99 1014.0
20260905115427 24 49 0.0 0.0 0.00 0.00 0.00 99 1013.8
20260905114923 23 49 0.0 0.0 0.00 0.00 0.00 99 1013.8
20260905114422 23 49 0.0 0.0 0.00 0.00 0.00 99 1013.8
20260905113921 23 49 0.0 0.0 0.00 0.00 0.00 99 1013.8
20260905113417 23 49 0.0 0.0 0.00 0.00 0.00 99 1013.9
20260905112912 23 49 1.6 1.6 0.00 0.00 0.00 99 1013.6
20260905112407 23 49 0.0 1.6 0.00 0.00 0.00 99 1013.5
20260905111903 23 46 0.0 0.0 0.00 0.00 0.00 99 1013.5
20260905111402 23 46 0.0 0.0 0.00 0.00 0.00 99 1013.6
20260905110901 23 46 0.0 0.0 0.00 0.00 0.00 99 1013.5
20260905110355 23 46 0.0 0.0 0.00 0.00 0.00 99 1013.5
20260905105852 23 46 0.0 1.6 0.00 0.00 0.00 99 1013.4
20260905105351 23 46 0.0 0.0 0.00 0.00 0.00 99 1013.5
20260905104850 23 45 0.0 0.0 0.00 0.00 0.00 99 1013.6
20260905104347 23 45 0.0 0.0 0.00 0.00 0.00 99 1013.6
20260905103846 23 46 0.0 1.6 0.00 0.00 0.00 99 1013.5
20260905103342 23 45 0.0 0.0 0.00 0.00 0.00 99 1013.3
20260905102837 23 46 0.0 1.6 0.00 0.00 0.00 99 1013.5
20260905102335 23 46 1.6 1.6 0.00 0.00 0.00 99 1013.4
20260905101834 23 44 0.0 1.6 0.00 0.00 0.00 99 1013.4
20260905101332 23 45 0.0 1.6 0.00 0.00 0.00 99 1013.3
20260905100827 23 42 1.6 1.6 0.00 0.00 0.00 99 1013.3
20260905100324 23 44 0.0 0.0 0.00 0.00 0.00 99 1013.2
20260905095823 23 44 0.0 0.0 0.00 0.00 0.00 99 1013.3
20260905095322 23 44 0.0 0.0 0.00 0.00 0.00 99 1013.5
20260905094817 23 44 0.0 1.6 0.00 0.00 0.00 99 1013.4
20260905094313 23 44 0.0 0.0 0.00 0.00 0.00 99 1013.4
20260905093812 23 44 0.0 0.0 0.00 0.00 0.00 99 1013.5
20260905093308 23 44 0.0 0.0 0.00 0.00 0.00 99 1013.3
20260905092803 23 44 0.0 0.0 0.00 0.00 0.00 99 1013.2
20260905092258 23 44 0.0 0.0 0.00 0.00 0.00 99 1013.3
20260905091758 23 44 0.0 0.0 0.00 0.00 0.00 99 1013.5
20260905091258 23 44 1.6 1.6 0.00 0.00 0.00 99 1013.2
20260905090757 23 44 0.0 0.0 0.00 0.00 0.00 99 1013.3
20260905090253 23 44 0.0 0.0 0.00 0.00 0.00 99 1013.3
20260905085752 23 44 0.0 1.6 0.00 0.00 0.00 99 1013.3
20260905085252 23 44 0.0 1.6 0.00 0.00 0.00 99 1013.2
20260905084747 23 44 1.6 1.6 0.00 0.00 0.00 99 1013.4
20260905084242 23 44 0.0 0.0 0.00 0.00 0.00 99 1013.3
20260905083737 23 44 0.0 0.0 0.00 0.00 0.00 99 1013.0
20260905083232 23 44 0.0 0.0 0.00 0.00 0.00 99 1013.0
20260905082728 23 44 1.6 1.6 0.00 0.00 0.00 99 1013.1
20260905082224 23 43 0.0 0.0 0.00 0.00 0.00 99 1013.3
20260905081723 23 43 1.6 1.6 0.00 0.00 0.00 99 1013.1
20260905081219 23 43 0.0 0.0 0.00 0.00 0.00 99 1013.0
20260905080719 23 43 0.0 0.0 0.00 0.00 0.00 99 1013.0
20260905080219 23 43 0.0 0.0 0.00 0.00 0.00 99 1013.0
20260905075718 23 43 0.0 1.6 0.00 0.00 0.00 99 1013.1
20260905075217 23 43 0.0 0.0 0.00 0.00 0.00 99 1013.2
20260905074716 23 45 1.6 1.6 0.00 0.00 0.00 99 1013.2
20260905074212 23 33 1.6 1.6 0.00 0.00 0.00 99 1013.3
20260905073708 23 33 0.0 0.0 0.00 0.00 0.00 99 1013.2
20260905073203 23 33 0.0 0.0 0.00 0.00 0.00 99 1013.1
20260905072702 23 33 0.0 0.0 0.00 0.00 0.00 99 1013.1
20260905072157 23 33 0.0 1.6 0.00 0.00 0.00 99 1013.3
20260905071654 23 34 1.6 3.2 0.00 0.00 0.00 99 1013.1
20260905071149 23 45 0.0 1.6 0.00 0.00 0.00 99 1013.2
20260905070644 23 45 0.0 0.0 0.00 0.00 0.00 99 1013.0
20260905070140 23 45 0.0 0.0 0.00 0.00 0.00 99 1013.1
20260905065638 23 45 0.0 0.0 0.00 0.00 0.00 98 1013.0
20260905065133 23 45 0.0 0.0 0.00 0.00 0.00 98 1013.2
20260905064628 23 45 0.0 0.0 0.00 0.00 0.00 98 1013.2
20260905064124 24 44 1.6 1.6 0.00 0.00 0.00 98 1013.1
20260905063622 24 45 1.6 1.6 0.00 0.00 0.00 98 1013.0
20260905063119 24 45 1.6 1.6 0.00 0.00 0.00 98 1012.8
20260905062615 24 45 0.0 0.0 0.00 0.00 0.00 98 1012.8
20260905062114 24 45 0.0 0.0 0.00 0.00 0.00 98 1013.0
20260905061609 24 45 0.0 0.0 0.00 0.00 0.00 98 1013.0
20260905061108 24 45 0.0 0.0 0.00 0.00 0.00 98 1013.0
20260905060604 24 45 0.0 0.0 0.00 0.00 0.00 98 1013.3
20260905060100 24 45 0.0 0.0 0.00 0.00 0.00 98 1013.2
20260905055558 24 45 0.0 0.0 0.00 0.00 0.00 98 1013.1
20260905055054 24 40 0.0 1.6 0.00 0.00 0.00 98 1013.1
20260905054549 24 40 0.0 0.0 0.00 0.00 0.00 98 1013.1
20260905054044 24 28 0.0 1.6 0.00 0.00 0.00 98 1013.1
20260905053544 24 38 1.6 1.6 0.00 0.00 0.00 98 1013.2
20260905053040 24 38 0.0 0.0 0.00 0.00 0.00 98 1013.2
20260905052539 24 39 0.0 0.0 0.00 0.00 0.00 98 1013.2
20260905052034 25 39 0.0 0.0 0.00 0.00 0.00 98 1013.1
20260905051529 25 38 0.0 0.0 0.00 0.00 0.00 98 1013.4
20260905051026 25 39 0.0 0.0 0.00 0.00 0.00 98 1013.4
20260905050522 24 39 0.0 0.0 0.00 0.00 0.00 98 1013.6
20260905050019 24 38 0.0 0.0 0.00 0.15 0.15 98 1013.6
20260905045513 25 38 0.0 0.0 0.00 0.15 0.15 98 1013.8
20260905045009 25 38 0.0 0.0 0.00 0.15 0.15 98 1013.8
20260905044509 25 38 0.0 0.0 0.00 0.15 0.15 98 1013.9
20260905044009 25 39 0.0 0.0 0.00 0.15 0.15 98 1014.0
20260905043508 25 39 0.0 0.0 0.00 0.15 0.15 98 1014.1
20260905043003 25 39 0.0 0.0 0.00 0.15 0.15 98 1014.0
20260905042502 25 39 0.0 0.0 0.00 0.15 0.15 98 1014.0
20260905041957 25 38 0.0 1.6 0.00 0.15 0.15 98 1014.0
20260905041453 25 38 0.0 0.0 0.00 0.15 0.15 98 1014.1
20260905040948 25 38 1.6 1.6 0.00 0.15 0.15 98 1014.0
20260905040448 25 41 0.0 1.6 0.00 0.15 0.15 98 1013.9
20260905035947 25 37 1.6 3.2 0.00 0.15 0.15 98 1014.2
20260905035442 25 45 0.0 0.0 0.00 0.15 0.15 97 1014.1
20260905034940 25 46 0.0 1.6 0.00 0.15 0.15 97 1014.3
20260905034435 25 43 1.6 1.6 0.00 0.15 0.15 97 1014.3
20260905033933 25 33 1.6 1.6 0.00 0.15 0.15 97 1014.4
20260905033428 25 37 0.0 1.6 0.00 0.15 0.15 97 1014.4
20260905032928 25 39 1.6 1.6 0.00 0.15 0.15 97 1014.5
20260905032424 25 39 1.6 3.2 0.00 0.15 0.15 97 1014.4
20260905031918 25 40 1.6 1.6 0.00 0.15 0.15 97 1014.1
20260905031414 25 41 0.0 0.0 0.00 0.15 0.15 97 1014.2
20260905030910 25 46 0.0 0.0 0.00 0.15 0.15 97 1014.4
20260905030405 25 44 0.0 0.0 0.00 0.15 0.15 97 1014.4
20260905025904 25 45 0.0 1.6 0.00 0.15 0.15 97 1014.4
20260905025359 25 43 0.0 0.0 0.00 0.15 0.15 97 1014.4
20260905024856 25 40 1.6 1.6 0.00 0.15 0.15 96 1014.4
20260905024356 25 44 0.0 0.0 0.00 0.15 0.15 96 1014.4
20260905023852 25 41 1.6 3.2 0.00 0.15 0.15 96 1014.5
20260905023347 25 47 1.6 1.6 0.00 0.15 0.15 96 1014.5
20260905022845 25 41 3.2 3.2 0.00 0.15 0.15 96 1014.5
20260905022341 25 40 1.6 1.6 0.00 0.15 0.15 96 1014.3
20260905021836 25 42 0.0 0.0 0.00 0.15 0.15 96 1014.3
20260905021331 25 41 0.0 1.6 0.00 0.15 0.15 96 1014.3
20260905020826 25 44 0.0 0.0 0.00 0.15 0.15 96 1014.2
20260905020321 25 35 0.0 1.6 0.00 0.15 0.15 96 1014.2
20260905015820 25 35 1.6 1.6 0.00 0.15 0.15 96 1014.1
20260905015319 25 34 0.0 0.0 0.00 0.15 0.15 96 1014.0
20260905014819 25 34 1.6 1.6 0.00 0.15 0.15 96 1014.0
20260905014314 25 34 0.0 0.0 0.00 0.15 0.15 96 1014.1
20260905013809 25 34 0.0 0.0 0.00 0.15 0.15 95 1014.0
20260905013306 25 34 0.0 0.0 0.00 0.15 0.15 95 1014.1
20260905012801 25 34 0.0 0.0 0.00 0.15 0.15 95 1013.9
20260905012256 26 18 1.6 1.6 0.00 0.15 0.15 95 1014.1
20260905011753 26 18 1.6 1.6 0.00 0.15 0.15 94 1014.1